CSUNSAT 1

Last updated on Sun Feb 24 2019 00:02:08 GMT+0000 (Coordinated Universal Time)

1 42715U 98067LW 19054.49025222 .00067911 00000-0 25675-3 0 9996 2 42715 51.6293 144.7383 0003957 25.9726 334.1476 15.87049365101167

Satellite not in orbit